Skip Page Navigation
NASA JPL Caltech
NASA Logo - Jet Propulsion Laboratory + View the NASA Portal
+ Center for Near-Earth Object Studies
JPL Home Earth Solar System Stars & Galaxies Technology
JPL Solar System Dynamics
BODIES ORBITS EPHEMERIDES TOOLS PHYSICAL DATA DISCOVERY FAQ SITE MAP
JPL Small-Body Database Browser
Search: [ help ]  
30440 Larry (2000 MG)
Classification: Main-belt Asteroid          SPK-ID: 2030440
Ephemeris | Orbit Diagram | Orbital Elements | Mission Design | Physical Parameters | Discovery Circumstances | Close-Approach Data ]

[ show orbit diagram ]
Orbital Elements at Epoch 2459200.5 (2020-Dec-17.0) TDB
Reference: JPL 23 (heliocentric ecliptic J2000)
 Element Value Uncertainty (1-sigma)   Units 
e .2012096545431233 3.5421e-08  
a 2.997985273647321 1.7598e-08 au
q 2.394761692411373 1.1038e-07 au
i 1.423454358361251 5.9618e-06 deg
node 354.4432446174458 0.00014768 deg
peri 250.802938053255 0.00014845 deg
M 356.9064052017235 1.4984e-05 deg
tp 2459216.793095300424
(2021-Jan-02.29309530)
7.894e-05 TDB
period 1896.01893286754
5.19
1.6695e-05
4.571e-08
d
yr
n .1898715217234333 1.6718e-09 deg/d
Q 3.601208854883269 2.1139e-08 au
  Orbit Determination Parameters
   # obs. used (total)      853  
   data-arc span      13138 days (35.97 yr)  
   first obs. used      1984-06-01  
   last obs. used      2020-05-21  
   planetary ephem.      DE441  
   SB-pert. ephem.      SB441-N16  
   condition code      0  
   norm. resid. RMS      .57647  
   source      ORB  
   producer      Otto Matic  
   solution date      2021-Apr-13 06:35:17  

Additional Information
 Earth MOID = 1.38046 au 
 Jupiter MOID = 1.43539 au 
 T_jup = 3.222 
[ show covariance matrix ]

Ephemeris | Orbit Diagram | Orbital Elements | Mission Design | Physical Parameters | Discovery Circumstances | Close-Approach Data ]

Physical Parameter Table
Parameter Symbol Value Units Sigma Reference Notes
absolute magnitude H 14.80   n/a E2021B10  
diameter diameter 5.689 km 0.135 urn:nasa:pds:neowise_diameters_albedos::2.0[mainbelt] (http://adsabs.harvard.edu/abs/2011ApJ...741...68M)  
geometric albedo albedo 0.072   0.012 urn:nasa:pds:neowise_diameters_albedos::2.0[mainbelt] (http://adsabs.harvard.edu/abs/2011ApJ...741...68M)  

30440 Larry           Discovered 2000 June 22 by J. Broughton at Reedy Creek Observatory.
Philadelphia-born Larry Fine (Louis Feinberg, 1902-1975) was a longtime member of "The Three Stooges". The one in the middle with a scared-porcupine hairstyle, Larry was often the recipient of the collateral damage of slaps, pokes and bumps while trying to keep the peace between the other two.
NOTE: some special characters may not display properly (any characters within {} are an attempt to place the proper accent above a character)
Reference: 20020427/MPCPages.arcLast Updated: 2003-10-02

[ show close-approach data ]
Ephemeris | Orbit Diagram | Orbital Elements | Mission Design | Physical Parameters | Discovery Circumstances | Close-Approach Data ]
ABOUT SSD CREDITS/AWARDS PRIVACY/COPYRIGHT GLOSSARY LINKS
FirstGov 2021-Jun-13 19:00 UT
(server date/time)  
NASA Home Page
Site Manager:   Ryan S. Park
Webmaster  Alan B. Chamberlin